Springfield, OH

11:05 AM EST on February 21, 2018 (GMT -0500)
Springfield-Beckley Municipal

Weather History for KSGH - May, 2013

Change the Weather History Date:

Sunday, May 5, 2013

  Actual Average (KFFO) Record (KFFO)
Temperature  
Mean Temperature 56 °F -  
Max Temperature 63 °F 69 °F 82 °F (2015)
Min Temperature 50 °F 48 °F 32 °F (2011)
Degree Days  
Heating Degree Days 8    
Growing Degree Days 6 (Base 50)    
Moisture  
Dew Point 41 °F    
Average Humidity 54    
Maximum Humidity 72    
Minimum Humidity 35    
Precipitation  
Precipitation 0.00 in - - ()
Sea Level Pressure  
Sea Level Pressure 29.99 in    
Wind  
Wind Speed 10 mph (East)    
Max Wind Speed 18 mph    
Max Gust Speed 21 mph    
Visibility 10 miles    
Events Rain    
Averages and records for this station are not official NWS values.
T = Trace of Precipitation, MM = Missing Value Source: NWS Daily Summary

Daily Weather History Graph

Daily Weather History Graph

Search for Another Location

Airport or City:

Trip Planner

Search our weather history database for the weather conditions in past years. The results will help you decide how hot, cold, wet, or windy it might be!

Date:

Astronomy

May. 05, 2013 Rise Set
Actual Time 6:30 AM EDT 8:34 PM EDT
Civil Twilight 6:01 AM EDT 9:03 PM EDT
Nautical Twilight 5:24 AM EDT 9:40 PM EDT
Astronomical Twilight 4:45 AM EDT 10:19 PM EDT
Moon 4:00 AM EDT (5/5) 4:32 PM EDT (5/5)
Length of Visible Light 15h 02m
Length of Day
14h 03m
Waning Crescent, 18% of the Moon is Illuminated
May 5
Waning Crescent
May 9
New
May 18
First Quarter
May 25
Full
May 31
Last Quarter

Hourly Weather History & Observations

Time (EDT) Temp. Dew Point Humidity Pressure Visibility Wind Dir Wind Speed Gust Speed Precip Events Conditions
12:56 AM 54.9 °F 39.9 °F 57% 30.02 in 10.0 mi East 9.2 mph - N/A   Mostly Cloudy
1:56 AM 55.9 °F 38.8 °F 53% 30.01 in 10.0 mi East 15.0 mph - N/A   Clear
2:56 AM 55.9 °F 38.8 °F 53% 30.01 in 10.0 mi East 12.7 mph - N/A   Clear
3:56 AM 54.0 °F 39.9 °F 59% 30.01 in 10.0 mi ESE 15.0 mph - N/A   Clear
4:56 AM 52.9 °F 39.9 °F 61% 30.01 in 10.0 mi ESE 11.5 mph - N/A   Clear
5:56 AM 50.0 °F 41.0 °F 71% 30.01 in 10.0 mi East 6.9 mph - N/A   Clear
6:56 AM 50.9 °F 41.0 °F 69% 30.01 in 10.0 mi East 9.2 mph - N/A   Clear
7:56 AM 52.0 °F 41.9 °F 69% 30.01 in 10.0 mi East 10.4 mph - N/A   Clear
8:56 AM 55.9 °F 39.9 °F 55% 30.02 in 10.0 mi East 15.0 mph 20.7 mph N/A   Clear
9:56 AM 57.9 °F 39.9 °F 51% 30.02 in 10.0 mi East 18.4 mph - N/A   Partly Cloudy
10:56 AM 61.0 °F 37.9 °F 42% 30.01 in 10.0 mi East 17.3 mph - N/A   Clear
11:56 AM 59.0 °F 38.8 °F 47% 30.01 in 8.0 mi East 12.7 mph - 0.00 in Rain Light Rain
12:56 PM 59.9 °F 38.8 °F 46% 30.02 in 10.0 mi ESE 9.2 mph - 0.00 in Rain Light Rain
1:56 PM 63.0 °F 34.9 °F 35% 30.01 in 10.0 mi SE 11.5 mph - 0.00 in   Partly Cloudy
2:56 PM 61.9 °F 37.9 °F 41% 30.01 in 8.0 mi SE 3.5 mph - 0.00 in Rain Light Rain
3:56 PM 63.0 °F 41.0 °F 45% 29.99 in 10.0 mi East 5.8 mph - 0.00 in   Scattered Clouds
4:56 PM 63.0 °F 38.8 °F 41% 29.97 in 10.0 mi Calm Calm - 0.00 in   Clear
5:56 PM 61.9 °F 45.0 °F 54% 29.96 in 8.0 mi NNE 5.8 mph - 0.00 in Rain Light Rain
6:56 PM 61.9 °F 43.0 °F 50% 29.95 in 10.0 mi Calm Calm - 0.00 in Rain Light Rain
7:56 PM 59.0 °F 45.0 °F 60% 29.96 in 10.0 mi WSW 6.9 mph - 0.00 in   Clear
8:56 PM 56.8 °F 43.9 °F 62% 29.97 in 10.0 mi WSW 5.8 mph - N/A   Clear
9:56 PM 56.8 °F 41.0 °F 55% 29.95 in 10.0 mi North 8.1 mph - N/A   Clear
10:56 PM 55.9 °F 41.9 °F 59% 29.96 in 10.0 mi Calm Calm - N/A   Mostly Cloudy
11:56 PM 54.0 °F 45.0 °F 72% 29.96 in 10.0 mi Calm Calm - N/A   Overcast